SCP
0 0 0 0 0 0 0 0 0 -0 0 0 -0 0 0 0 0 0 0 0 -0 -0 -0 0 -0 -0 -0 -0 -0 -0 -0 -0 -0 -0 -0 -0 -0 -0 -0 -0 -0 -0 -0 -0 -0 0 0 0 0
0 0 0 0 0 0 0 0 0 0 0 0 0 0 0 0 0 0 0 0 -0 -0 0 -0 -0 -0 -0 -0 -0 -0 -0 -0 -0 -0 -0 -0 -0 -0 -0 -0 -0 -0 -0 -0 -0 0 0 0 0
0 0 0 0 0 0 0 0 0 0 0 0 0 0 0 0 -0 0 0 0 1 1 0 -0 -0 -0 -0 -0 -0 -0 -0 -0 -0 -0 -0 -0 -0 -0 -0 -0 -0 -0 -0 -0 -0 -0 0 0 -0
0 0 0 0 0 0 0 0 0 0 0 0 -0 0 0 0 0 0 0 -0 0 1 1 -0 -0 -0 -0 -0 -0 -0 -0 -0 -0 -0 -0 -0 -0 -0 -0 -0 -0 -0 -0 -0 -0 -0 0 -0 -0
0 0 0 0 0 0 0 0 0 0 0 0 0 -0 1 0 0 1 1 0 0 1 0 0 -0 -0 -0 -0 -0 -0 -0 -0 -0 -0 -0 -0 -0 0 0 0 0 -0 -0 -0 -0 -0 -0 -0 -0
0 0 0 0 0 0 0 0 -0 0 0 0 0 1 1 0 0 1 1 0 1 1 1 1 0 0 -0 -0 0 0 0 0 0 0 0 0 0 0 0 0 0 0 0 0 0 0 -0 -0 -0
0 0 0 0 0 0 0 -0 0 0 0 0 0 1 1 1 0 0 1 1 2 2 2 1 1 1 0 0 -0 0 0 0 0 0 0 0 0 0 0 0 0 0 0 0 0 0 0 -0 -0
0 0 0 0 0 0 0 0 0 0 0 0 0 0 1 1 0 0 0 1 1 1 2 1 1 1 1 1 0 0 0 0 0 0 0 0 0 0 0 0 0 0 0 0 0 0 0 0 -0
0 0 0 0 0 0 0 0 0 0 -0 0 0 2 1 1 1 0 0 0 1 1 1 1 1 1 1 1 1 1 0 0 0 0 0 0 0 0 0 0 0 0 0 0 0 0 0 0 0
0 0 0 0 0 0 0 0 0 0 0 0 -0 1 1 2 2 1 1 0 0 1 0 1 1 1 1 1 1 1 1 1 1 1 0 0 0 0 0 0 0 0 0 0 0 0 0 0 0
0 0 0 0 0 0 0 0 0 0 0 0 -0 -1 1 1 1 2 1 0 0 0 0 0 1 1 1 2 1 1 1 1 1 1 0 0 0 0 0 0 0 0 0 0 0 0 0 0 0
0 0 0 0 0 0 0 0 0 0 0 0 0 -1 2 2 1 1 0 0 0 0 1 0 0 0 1 2 2 1 1 1 1 0 0 0 0 0 0 0 0 0 0 0 0 0 0 0 0
0 0 0 0 0 0 0 0 0 0 0 0 -0 -0 1 1 1 0 0 0 0 0 0 1 0 0 0 1 1 1 1 0 0 0 0 0 0 0 0 0 0 0 0 0 0 0 0 0 0
0 0 0 0 0 0 0 0 0 0 0 0 0 0 0 0 0 0 0 0 0 0 0 1 0 0 1 0 0 0 0 0 0 0 0 0 0 0 0 0 0 0 0 0 0 0 0 0 0
0 0 0 0 0 0 0 0 0 -0 -0 0 0 0 0 0 0 -0 -0 0 0 0 0 0 0 0 0 1 0 0 0 0 0 0 0 0 0 0 0 0 0 0 0 0 0 0 0 0 0
0 0 0 0 0 0 0 0 0 0 -0 0 0 0 0 0 0 0 0 0 0 0 0 0 1 0 0 0 0 0 0 0 0 0 0 0 0 0 0 0 0 0 0 0 0 0 1 1 1
0 0 0 0 0 0 0 0 0 0 0 0 0 0 0 0 0 0 0 0 0 0 0 0 0 0 0 0 0 0 0 0 0 0 0 1 0 0 0 0 1 1 1 1 0 0 0 0 0
0 0 0 0 0 0 0 0 0 0 0 0 0 0 0 0 0 0 0 0 0 0 0 0 0 0 0 0 0 0 0 0 0 0 0 0 0 0 -0 1 2 1 1 0 0 0 0 0 0
0 0 0 0 0 0 0 0 0 0 0 0 0 0 0 0 0 0 -0 0 0 0 0 0 0 0 0 0 0 0 0 0 0 0 0 0 0 -0 -0 1 1 1 1 0 0 0 0 0 0
0 0 0 0 -0 0 -0 -0 0 0 0 0 0 0 0 0 0 0 0 0 0 0 0 0 0 0 0 0 0 0 0 0 0 0 0 0 0 -0 0 0 0 0 1 1 0 0 0 0 0
0 0 0 0 0 -0 0 0 -0 -0 0 0 0 0 0 0 0 0 0 0 0 0 0 0 0 0 0 0 0 0 0 0 0 0 0 0 0 0 0 0 0 0 0 1 1 1 0 0 0
0 0 0 -0 0 0 0 0 0 0 0 0 0 0 0 0 0 0 0 0 0 0 0 0 0 0 0 0 0 0 0 0 0 0 0 0 0 0 0 0 0 0 0 0 0 0 0 0 0
0 0 0 0 0 0 0 0 0 0 0 0 0 0 0 0 0 0 0 0 0 0 0 0 1 1 0 0 0 0 0 0 0 0 0 0 0 0 -0 -0 0 0 1 0 0 0 0 0 0
-0 0 0 0 0 0 0 0 0 0 0 0 0 0 0 0 0 0 0 0 0 0 2 5 5 3 3 2 1 0 1 0 0 0 0 -0 0 0 0 0 1 0 0 0 0 0 0 0 0
-0 0 0 0 0 0 0 0 0 0 0 0 0 0 0 0 0 0 0 0 0 0 1 1 0 0 0 0 0 0 0 0 0 0 0 0 0 0 0 0 0 0 0 0 0 0 0 0 0
-0 0 0 0 0 0 0 0 0 0 0 0 0 0 0 0 0 0 0 0 0 0 0 0 0 0 0 0 0 0 0 0 0 0 0 0 0 0 0 0 0 0 0 0 0 0 0 0 0
0 0 0 0 0 0 0 0 0 0 0 0 0 0 0 0 0 0 0 0 0 0 0 0 0 0 0 0 0 0 0 0 0 0 0 0 0 0 0 0 0 0 0 0 0 0 0 0 0
0 0 0 0 0 0 0 0 0 0 0 0 0 0 0 0 0 0 0 0 0 0 0 0 0 0 0 0 0 0 0 0 0 0 0 0 0 0 0 0 0 0 0 0 0 0 0 0 0
0 0 0 0 0 0 0 0 0 0 0 0 0 0 0 0 0 0 0 0 0 0 0 0 0 0 0 0 0 0 0 0 0 0 0 0 0 0 0 0 0 0 0 0 0 0 0 0 0
0 0 0 0 0 0 0 0 0 0 0 0 0 0 0 0 0 0 0 0 0 0 0 0 0 0 0 0 0 0 0 0 0 0 0 0 0 0 0 0 0 0 0 0 0 0 0 0 0
Wind_Speed_500mb
29 20 16 12 5 8 8 18 5 26 10 22 31 18 12 3 10 7 27 61 54 65 68 65 61 58 54 48 44 41 39 35 34 39 43 42 45 48 51 49 45 40 36 33 33 34 36 37 35
23 18 11 2 7 4 12 9 34 21 27 62 19 30 8 6 13 12 50 64 55 61 67 69 64 59 56 52 47 44 41 37 33 36 42 43 45 47 47 45 41 37 34 32 31 32 35 36 37
13 16 10 8 7 12 13 13 15 23 40 62 13 8 16 12 22 27 27 55 64 60 64 71 67 63 59 55 51 46 43 38 33 35 40 42 43 45 45 42 37 33 30 29 27 27 30 33 34
7 10 7 8 18 17 24 21 9 31 46 55 18 10 6 7 8 20 38 51 62 59 64 72 67 62 59 53 50 47 43 40 34 34 38 43 44 42 42 39 35 30 27 24 23 23 24 28 30
18 5 3 7 18 15 22 36 27 22 33 56 59 6 11 8 18 25 40 56 63 65 66 70 66 61 56 52 49 48 45 42 36 33 35 39 40 40 40 37 34 28 24 22 21 21 21 23 27
11 6 3 16 16 22 20 44 27 20 48 64 22 19 8 13 18 35 44 53 59 63 65 67 63 58 54 50 48 46 44 42 40 34 34 36 39 39 39 36 33 27 23 20 20 19 18 19 21
10 8 12 11 10 20 37 20 21 30 38 58 29 9 17 40 35 41 36 36 45 58 62 63 60 54 50 48 48 48 47 46 43 37 35 35 37 38 38 36 32 28 25 22 19 18 16 15 14
18 8 9 14 25 23 19 19 37 37 41 66 40 16 18 50 53 51 37 34 45 42 50 55 56 54 51 49 46 46 46 46 43 40 36 34 35 36 36 35 33 29 26 23 20 17 15 15 14
26 7 13 17 15 10 28 10 51 31 36 57 18 27 72 68 71 58 38 26 42 39 43 45 49 49 46 44 45 47 49 47 44 42 37 33 33 36 38 36 33 30 27 24 22 20 19 18 16
15 17 17 9 19 12 30 34 39 29 41 51 26 32 81 76 73 66 67 44 26 22 41 54 51 51 46 46 48 50 51 53 50 46 41 37 34 36 39 39 37 34 30 27 23 22 20 19 16
11 27 22 12 37 47 37 53 37 22 30 44 10 14 62 77 72 77 74 48 55 10 34 54 55 52 52 50 48 50 51 51 49 45 43 39 39 41 43 42 40 37 34 30 26 24 22 20 19
13 11 30 24 40 39 26 53 37 20 36 34 42 15 47 72 79 72 60 78 60 59 77 56 63 52 51 49 50 49 52 51 48 46 45 44 43 44 45 45 43 39 34 29 27 25 23 23 20
12 18 42 47 60 62 60 46 49 43 53 40 29 11 40 71 71 63 69 70 62 59 63 53 51 57 56 51 49 52 49 48 47 46 45 47 46 46 44 43 41 34 28 21 18 23 17 22 24
14 50 48 52 57 56 41 44 30 63 33 20 13 19 47 56 61 62 74 71 67 55 53 60 61 60 54 50 43 43 41 42 44 44 44 44 44 44 45 40 34 32 28 22 18 16 18 17 21
49 19 22 26 26 25 46 35 43 45 24 27 12 24 44 59 61 64 70 68 72 59 51 48 65 58 48 41 43 42 40 48 47 42 38 38 41 44 46 43 35 28 27 27 22 25 30 29 31
10 9 24 20 16 23 26 42 33 29 9 22 23 25 43 64 61 61 67 69 71 64 66 58 50 59 52 44 40 56 60 51 51 44 39 24 22 34 48 44 41 32 37 33 32 35 31 31 26
7 15 10 15 18 15 18 21 14 39 34 29 29 27 31 48 52 54 59 60 47 44 55 63 65 70 72 68 68 63 72 58 50 49 49 45 28 37 54 56 46 36 43 40 43 45 42 46 41
17 10 9 13 14 14 23 17 17 31 42 42 40 27 26 50 64 57 58 57 43 39 40 56 71 66 72 72 67 80 65 59 61 52 35 44 44 60 82 68 52 53 52 45 47 49 53 57 47
18 11 13 10 27 10 17 20 19 31 32 32 46 45 31 27 58 61 56 66 61 56 54 53 46 52 71 77 79 97 79 79 72 70 73 56 44 85 101 83 53 49 52 53 51 45 43 41 35
19 17 17 21 14 13 21 29 20 21 19 46 56 56 48 37 36 69 65 73 74 65 56 54 40 41 47 73 83 82 80 80 84 80 89 90 74 110 100 57 53 44 43 48 56 46 46 47 38
29 28 22 20 9 12 20 14 10 14 19 39 61 69 64 55 47 48 80 82 77 67 56 49 40 34 44 50 54 46 61 75 85 97 84 73 90 88 40 55 42 58 56 47 49 55 55 48 41
36 27 34 30 9 10 10 10 7 11 13 3 24 49 69 70 68 52 54 80 80 68 60 50 40 41 35 42 54 47 35 35 23 49 53 32 44 26 39 57 52 43 49 53 48 51 51 50 52
30 30 35 32 12 8 2 8 13 7 9 6 5 17 32 54 58 51 44 61 74 74 66 54 47 41 41 41 36 32 24 23 15 18 20 59 27 44 53 45 37 35 39 36 39 46 44 51 52
38 25 24 24 8 12 10 12 9 6 12 7 6 16 27 31 38 44 31 49 65 70 59 41 36 32 29 27 25 22 22 25 22 28 23 34 38 38 38 34 32 25 36 42 47 56 48 45 45
39 14 7 6 11 10 13 4 13 12 9 9 11 17 29 29 25 32 41 51 47 48 47 48 42 39 34 33 31 30 33 32 27 22 32 37 37 40 41 44 45 43 55 48 43 39 37 38 42
26 26 11 11 12 6 5 6 9 11 24 34 36 48 46 43 46 48 52 57 51 59 54 41 32 25 24 24 22 20 16 11 12 16 19 24 28 24 23 21 23 23 31 46 42 40 41 46 49
30 22 24 12 5 10 9 8 10 21 29 30 40 59 52 54 59 60 65 66 62 55 46 36 27 25 19 6 2 3 3 8 7 17 22 17 16 12 14 15 19 25 26 29 37 44 49 54 57
35 20 14 5 14 9 7 8 6 10 14 19 18 37 56 57 57 60 60 61 58 52 43 33 24 18 12 11 10 6 12 15 10 7 9 15 13 14 17 21 26 32 35 42 51 56 60 67 70
6 12 8 13 10 11 9 6 2 5 20 17 11 30 53 60 62 62 61 57 55 49 40 38 29 26 24 21 8 5 5 8 3 7 7 7 9 16 24 30 36 43 49 54 57 59 62 67 69
9 15 14 13 5 7 9 5 1 12 4 25 23 43 58 59 60 62 61 64 62 56 44 37 30 22 18 13 7 6 13 12 13 17 18 19 22 24 29 35 40 46 52 57 61 64 65 68 71
Wind_Direction_500mb
251 240 269 308 57 71 251 251 251 269 325 304 282 149 157 131 177 216 162 166 168 169 168 170 170 168 165 165 161 158 153 148 145 148 149 150 150 151 152 150 147 145 143 142 141 139 135 127 122
246 218 243 241 122 170 255 252 258 265 284 312 121 114 120 213 209 159 156 170 171 170 171 171 173 171 170 168 171 167 163 156 150 150 152 152 152 154 154 153 152 150 148 147 146 146 143 137 132
236 194 174 151 180 200 233 226 280 285 330 316 304 156 157 184 185 165 177 169 177 175 175 174 176 175 175 174 174 173 170 165 157 155 156 155 155 156 156 156 157 155 152 150 150 151 151 146 142
165 164 230 149 225 249 235 261 350 321 321 304 318 76 181 185 326 201 178 181 178 176 178 175 178 179 178 179 178 177 174 172 166 162 162 161 162 160 162 165 164 161 157 155 154 156 158 156 155
185 161 199 214 236 248 254 263 288 296 292 289 307 34 54 57 319 182 171 174 178 177 178 177 179 181 182 182 184 181 179 178 176 171 168 169 168 165 166 164 165 166 166 166 165 166 169 165 163
172 160 134 225 228 252 265 272 285 276 281 284 291 100 70 118 154 171 174 175 181 177 176 177 179 183 185 187 189 187 185 184 184 180 176 176 176 172 169 170 171 174 175 177 178 180 186 180 177
149 106 215 220 228 250 255 276 254 268 283 283 300 75 131 140 147 148 163 177 189 181 179 180 179 184 188 192 194 191 190 190 191 190 186 183 185 182 179 179 181 182 182 185 190 194 201 201 200
203 128 230 219 234 259 265 259 267 276 284 295 265 151 180 137 153 152 154 166 182 185 187 187 184 186 192 191 194 196 195 197 198 198 196 192 190 191 191 188 188 190 191 192 195 203 210 217 217
207 201 221 219 204 249 291 292 278 299 306 314 297 153 165 144 164 157 141 159 171 177 197 202 198 194 196 197 196 194 196 201 205 206 205 204 201 198 200 199 196 198 201 203 205 206 215 222 227
197 215 225 204 213 266 271 271 288 326 315 307 33 135 154 157 173 173 180 173 185 194 199 204 207 204 202 203 201 198 198 200 203 207 211 210 211 208 205 205 203 204 209 213 216 221 227 234 239
228 239 228 266 238 259 265 272 286 277 279 282 336 154 159 165 172 171 179 209 185 197 245 217 209 209 210 210 210 207 206 208 209 213 216 219 217 212 209 209 209 210 215 219 223 232 239 246 250
237 254 245 264 267 266 248 265 266 249 270 303 327 274 200 176 180 180 181 182 212 193 239 215 204 209 215 214 215 219 217 216 217 220 223 224 223 218 213 212 214 216 218 225 237 242 249 252 251
236 241 254 257 258 253 262 263 268 262 278 292 309 241 203 183 184 191 194 205 199 203 208 205 204 206 212 216 219 220 223 225 226 226 228 230 230 224 217 217 221 221 219 214 235 239 247 251 239
235 235 246 252 256 254 252 263 266 264 259 283 300 198 184 190 185 182 186 180 184 197 211 209 194 198 206 211 214 223 228 238 236 235 234 237 237 234 223 218 216 224 219 218 239 233 234 231 232
243 257 261 247 249 245 256 263 247 265 261 255 202 183 185 184 181 179 183 186 191 203 199 195 199 199 193 202 216 223 225 231 232 240 242 240 240 238 233 230 226 230 233 244 252 248 251 243 251
205 187 248 265 224 253 201 247 252 260 248 257 243 193 201 191 191 187 192 200 210 217 223 229 206 200 195 208 227 238 231 227 222 222 229 233 246 255 239 236 234 238 246 245 249 247 251 231 234
221 240 221 275 198 226 183 252 254 258 271 268 274 260 191 206 192 196 195 197 199 206 212 211 217 227 230 233 219 244 232 226 217 226 233 230 237 261 242 237 237 227 235 237 241 244 241 241 245
213 196 215 205 273 200 253 255 258 243 246 251 253 244 234 183 191 195 191 200 206 199 200 216 213 216 217 215 217 216 222 236 229 229 220 227 281 235 249 235 239 231 230 235 242 246 246 255 270
225 220 233 232 242 197 253 251 240 241 236 243 245 247 232 231 197 194 195 193 187 177 176 182 191 213 219 213 207 218 226 225 227 227 226 251 267 252 250 222 232 237 242 243 241 251 261 259 258
218 232 245 265 273 158 253 251 228 222 228 228 234 244 247 229 217 198 201 199 183 179 174 171 188 201 210 215 222 218 235 244 231 225 240 246 285 250 253 236 228 237 238 244 247 249 243 249 237
225 222 232 239 285 276 251 252 228 245 228 238 239 237 238 240 232 209 198 193 189 184 188 192 188 181 194 201 211 218 235 242 240 235 250 253 263 274 226 240 258 263 240 241 244 245 244 245 245
227 215 227 244 233 236 158 246 272 228 236 184 248 244 239 238 237 238 213 208 208 213 213 208 203 200 191 198 205 212 217 222 261 251 252 231 237 194 247 236 246 248 245 243 251 247 248 244 240
230 216 223 234 210 205 208 89 267 44 332 174 161 148 223 239 241 234 222 217 215 218 212 208 206 194 194 196 213 210 230 227 265 239 254 222 240 220 201 249 248 261 263 257 256 256 251 243 246
226 221 231 242 179 230 229 138 274 249 207 175 275 153 166 191 207 217 225 207 212 198 195 183 165 172 184 190 197 229 247 244 247 257 236 194 208 202 202 219 239 250 254 253 257 261 253 252 261
220 188 250 240 212 207 196 65 230 323 310 203 147 75 91 103 127 157 156 158 172 183 178 161 162 164 168 171 193 211 224 221 220 207 195 207 213 211 215 222 225 236 246 245 238 241 245 252 258
215 192 165 169 182 160 138 191 316 9 29 49 69 89 99 96 102 110 128 134 137 149 161 173 181 170 177 196 210 214 230 196 184 179 204 215 217 210 206 213 204 203 215 241 235 240 247 254 258
216 198 199 129 49 126 147 95 51 25 30 46 60 72 82 96 99 107 114 118 116 117 117 122 112 95 86 89 6 16 288 225 236 173 166 171 186 184 197 223 236 244 244 246 253 256 261 265 268
214 168 162 8 133 161 145 121 123 13 47 37 46 84 94 97 96 98 99 103 106 104 98 94 93 82 49 13 17 315 293 224 283 244 191 213 246 266 274 280 279 279 280 274 272 271 271 273 272
147 166 97 109 121 157 139 113 345 237 131 98 68 99 104 104 103 99 97 96 96 92 89 85 77 67 56 44 19 119 236 62 169 223 194 225 275 285 287 289 291 292 288 288 287 287 284 281 280
217 176 143 134 177 96 116 175 289 200 142 122 108 114 113 111 109 107 103 99 100 99 99 97 96 88 67 54 33 353 345 341 317 332 330 324 320 312 309 305 301 298 295 293 293 291 289 288 286
Wind_Speed_850mb
29 20 16 12 5 8 8 18 5 26 10 22 31 18 12 3 10 7 27 61 54 65 68 65 61 58 54 48 44 41 39 35 34 39 43 42 45 48 51 49 45 40 36 33 33 34 36 37 35
23 18 11 2 7 4 12 9 34 21 27 62 19 30 8 6 13 12 50 64 55 61 67 69 64 59 56 52 47 44 41 37 33 36 42 43 45 47 47 45 41 37 34 32 31 32 35 36 37
13 16 10 8 7 12 13 13 15 23 40 62 13 8 16 12 22 27 27 55 64 60 64 71 67 63 59 55 51 46 43 38 33 35 40 42 43 45 45 42 37 33 30 29 27 27 30 33 34
7 10 7 8 18 17 24 21 9 31 46 55 18 10 6 7 8 20 38 51 62 59 64 72 67 62 59 53 50 47 43 40 34 34 38 43 44 42 42 39 35 30 27 24 23 23 24 28 30
18 5 3 7 18 15 22 36 27 22 33 56 59 6 11 8 18 25 40 56 63 65 66 70 66 61 56 52 49 48 45 42 36 33 35 39 40 40 40 37 34 28 24 22 21 21 21 23 27
11 6 3 16 16 22 20 44 27 20 48 64 22 19 8 13 18 35 44 53 59 63 65 67 63 58 54 50 48 46 44 42 40 34 34 36 39 39 39 36 33 27 23 20 20 19 18 19 21
10 8 12 11 10 20 37 20 21 30 38 58 29 9 17 40 35 41 36 36 45 58 62 63 60 54 50 48 48 48 47 46 43 37 35 35 37 38 38 36 32 28 25 22 19 18 16 15 14
18 8 9 14 25 23 19 19 37 37 41 66 40 16 18 50 53 51 37 34 45 42 50 55 56 54 51 49 46 46 46 46 43 40 36 34 35 36 36 35 33 29 26 23 20 17 15 15 14
26 7 13 17 15 10 28 10 51 31 36 57 18 27 72 68 71 58 38 26 42 39 43 45 49 49 46 44 45 47 49 47 44 42 37 33 33 36 38 36 33 30 27 24 22 20 19 18 16
15 17 17 9 19 12 30 34 39 29 41 51 26 32 81 76 73 66 67 44 26 22 41 54 51 51 46 46 48 50 51 53 50 46 41 37 34 36 39 39 37 34 30 27 23 22 20 19 16
11 27 22 12 37 47 37 53 37 22 30 44 10 14 62 77 72 77 74 48 55 10 34 54 55 52 52 50 48 50 51 51 49 45 43 39 39 41 43 42 40 37 34 30 26 24 22 20 19
13 11 30 24 40 39 26 53 37 20 36 34 42 15 47 72 79 72 60 78 60 59 77 56 63 52 51 49 50 49 52 51 48 46 45 44 43 44 45 45 43 39 34 29 27 25 23 23 20
12 18 42 47 60 62 60 46 49 43 53 40 29 11 40 71 71 63 69 70 62 59 63 53 51 57 56 51 49 52 49 48 47 46 45 47 46 46 44 43 41 34 28 21 18 23 17 22 24
14 50 48 52 57 56 41 44 30 63 33 20 13 19 47 56 61 62 74 71 67 55 53 60 61 60 54 50 43 43 41 42 44 44 44 44 44 44 45 40 34 32 28 22 18 16 18 17 21
49 19 22 26 26 25 46 35 43 45 24 27 12 24 44 59 61 64 70 68 72 59 51 48 65 58 48 41 43 42 40 48 47 42 38 38 41 44 46 43 35 28 27 27 22 25 30 29 31
10 9 24 20 16 23 26 42 33 29 9 22 23 25 43 64 61 61 67 69 71 64 66 58 50 59 52 44 40 56 60 51 51 44 39 24 22 34 48 44 41 32 37 33 32 35 31 31 26
7 15 10 15 18 15 18 21 14 39 34 29 29 27 31 48 52 54 59 60 47 44 55 63 65 70 72 68 68 63 72 58 50 49 49 45 28 37 54 56 46 36 43 40 43 45 42 46 41
17 10 9 13 14 14 23 17 17 31 42 42 40 27 26 50 64 57 58 57 43 39 40 56 71 66 72 72 67 80 65 59 61 52 35 44 44 60 82 68 52 53 52 45 47 49 53 57 47
18 11 13 10 27 10 17 20 19 31 32 32 46 45 31 27 58 61 56 66 61 56 54 53 46 52 71 77 79 97 79 79 72 70 73 56 44 85 101 83 53 49 52 53 51 45 43 41 35
19 17 17 21 14 13 21 29 20 21 19 46 56 56 48 37 36 69 65 73 74 65 56 54 40 41 47 73 83 82 80 80 84 80 89 90 74 110 100 57 53 44 43 48 56 46 46 47 38
29 28 22 20 9 12 20 14 10 14 19 39 61 69 64 55 47 48 80 82 77 67 56 49 40 34 44 50 54 46 61 75 85 97 84 73 90 88 40 55 42 58 56 47 49 55 55 48 41
36 27 34 30 9 10 10 10 7 11 13 3 24 49 69 70 68 52 54 80 80 68 60 50 40 41 35 42 54 47 35 35 23 49 53 32 44 26 39 57 52 43 49 53 48 51 51 50 52
30 30 35 32 12 8 2 8 13 7 9 6 5 17 32 54 58 51 44 61 74 74 66 54 47 41 41 41 36 32 24 23 15 18 20 59 27 44 53 45 37 35 39 36 39 46 44 51 52
38 25 24 24 8 12 10 12 9 6 12 7 6 16 27 31 38 44 31 49 65 70 59 41 36 32 29 27 25 22 22 25 22 28 23 34 38 38 38 34 32 25 36 42 47 56 48 45 45
39 14 7 6 11 10 13 4 13 12 9 9 11 17 29 29 25 32 41 51 47 48 47 48 42 39 34 33 31 30 33 32 27 22 32 37 37 40 41 44 45 43 55 48 43 39 37 38 42
26 26 11 11 12 6 5 6 9 11 24 34 36 48 46 43 46 48 52 57 51 59 54 41 32 25 24 24 22 20 16 11 12 16 19 24 28 24 23 21 23 23 31 46 42 40 41 46 49
30 22 24 12 5 10 9 8 10 21 29 30 40 59 52 54 59 60 65 66 62 55 46 36 27 25 19 6 2 3 3 8 7 17 22 17 16 12 14 15 19 25 26 29 37 44 49 54 57
35 20 14 5 14 9 7 8 6 10 14 19 18 37 56 57 57 60 60 61 58 52 43 33 24 18 12 11 10 6 12 15 10 7 9 15 13 14 17 21 26 32 35 42 51 56 60 67 70
6 12 8 13 10 11 9 6 2 5 20 17 11 30 53 60 62 62 61 57 55 49 40 38 29 26 24 21 8 5 5 8 3 7 7 7 9 16 24 30 36 43 49 54 57 59 62 67 69
9 15 14 13 5 7 9 5 1 12 4 25 23 43 58 59 60 62 61 64 62 56 44 37 30 22 18 13 7 6 13 12 13 17 18 19 22 24 29 35 40 46 52 57 61 64 65 68 71
Wind_Direction_850mb
251 240 269 308 57 71 251 251 251 269 325 304 282 149 157 131 177 216 162 166 168 169 168 170 170 168 165 165 161 158 153 148 145 148 149 150 150 151 152 150 147 145 143 142 141 139 135 127 122
246 218 243 241 122 170 255 252 258 265 284 312 121 114 120 213 209 159 156 170 171 170 171 171 173 171 170 168 171 167 163 156 150 150 152 152 152 154 154 153 152 150 148 147 146 146 143 137 132
236 194 174 151 180 200 233 226 280 285 330 316 304 156 157 184 185 165 177 169 177 175 175 174 176 175 175 174 174 173 170 165 157 155 156 155 155 156 156 156 157 155 152 150 150 151 151 146 142
165 164 230 149 225 249 235 261 350 321 321 304 318 76 181 185 326 201 178 181 178 176 178 175 178 179 178 179 178 177 174 172 166 162 162 161 162 160 162 165 164 161 157 155 154 156 158 156 155
185 161 199 214 236 248 254 263 288 296 292 289 307 34 54 57 319 182 171 174 178 177 178 177 179 181 182 182 184 181 179 178 176 171 168 169 168 165 166 164 165 166 166 166 165 166 169 165 163
172 160 134 225 228 252 265 272 285 276 281 284 291 100 70 118 154 171 174 175 181 177 176 177 179 183 185 187 189 187 185 184 184 180 176 176 176 172 169 170 171 174 175 177 178 180 186 180 177
149 106 215 220 228 250 255 276 254 268 283 283 300 75 131 140 147 148 163 177 189 181 179 180 179 184 188 192 194 191 190 190 191 190 186 183 185 182 179 179 181 182 182 185 190 194 201 201 200
203 128 230 219 234 259 265 259 267 276 284 295 265 151 180 137 153 152 154 166 182 185 187 187 184 186 192 191 194 196 195 197 198 198 196 192 190 191 191 188 188 190 191 192 195 203 210 217 217
207 201 221 219 204 249 291 292 278 299 306 314 297 153 165 144 164 157 141 159 171 177 197 202 198 194 196 197 196 194 196 201 205 206 205 204 201 198 200 199 196 198 201 203 205 206 215 222 227
197 215 225 204 213 266 271 271 288 326 315 307 33 135 154 157 173 173 180 173 185 194 199 204 207 204 202 203 201 198 198 200 203 207 211 210 211 208 205 205 203 204 209 213 216 221 227 234 239
228 239 228 266 238 259 265 272 286 277 279 282 336 154 159 165 172 171 179 209 185 197 245 217 209 209 210 210 210 207 206 208 209 213 216 219 217 212 209 209 209 210 215 219 223 232 239 246 250
237 254 245 264 267 266 248 265 266 249 270 303 327 274 200 176 180 180 181 182 212 193 239 215 204 209 215 214 215 219 217 216 217 220 223 224 223 218 213 212 214 216 218 225 237 242 249 252 251
236 241 254 257 258 253 262 263 268 262 278 292 309 241 203 183 184 191 194 205 199 203 208 205 204 206 212 216 219 220 223 225 226 226 228 230 230 224 217 217 221 221 219 214 235 239 247 251 239
235 235 246 252 256 254 252 263 266 264 259 283 300 198 184 190 185 182 186 180 184 197 211 209 194 198 206 211 214 223 228 238 236 235 234 237 237 234 223 218 216 224 219 218 239 233 234 231 232
243 257 261 247 249 245 256 263 247 265 261 255 202 183 185 184 181 179 183 186 191 203 199 195 199 199 193 202 216 223 225 231 232 240 242 240 240 238 233 230 226 230 233 244 252 248 251 243 251
205 187 248 265 224 253 201 247 252 260 248 257 243 193 201 191 191 187 192 200 210 217 223 229 206 200 195 208 227 238 231 227 222 222 229 233 246 255 239 236 234 238 246 245 249 247 251 231 234
221 240 221 275 198 226 183 252 254 258 271 268 274 260 191 206 192 196 195 197 199 206 212 211 217 227 230 233 219 244 232 226 217 226 233 230 237 261 242 237 237 227 235 237 241 244 241 241 245
213 196 215 205 273 200 253 255 258 243 246 251 253 244 234 183 191 195 191 200 206 199 200 216 213 216 217 215 217 216 222 236 229 229 220 227 281 235 249 235 239 231 230 235 242 246 246 255 270
225 220 233 232 242 197 253 251 240 241 236 243 245 247 232 231 197 194 195 193 187 177 176 182 191 213 219 213 207 218 226 225 227 227 226 251 267 252 250 222 232 237 242 243 241 251 261 259 258
218 232 245 265 273 158 253 251 228 222 228 228 234 244 247 229 217 198 201 199 183 179 174 171 188 201 210 215 222 218 235 244 231 225 240 246 285 250 253 236 228 237 238 244 247 249 243 249 237
225 222 232 239 285 276 251 252 228 245 228 238 239 237 238 240 232 209 198 193 189 184 188 192 188 181 194 201 211 218 235 242 240 235 250 253 263 274 226 240 258 263 240 241 244 245 244 245 245
227 215 227 244 233 236 158 246 272 228 236 184 248 244 239 238 237 238 213 208 208 213 213 208 203 200 191 198 205 212 217 222 261 251 252 231 237 194 247 236 246 248 245 243 251 247 248 244 240
230 216 223 234 210 205 208 89 267 44 332 174 161 148 223 239 241 234 222 217 215 218 212 208 206 194 194 196 213 210 230 227 265 239 254 222 240 220 201 249 248 261 263 257 256 256 251 243 246
226 221 231 242 179 230 229 138 274 249 207 175 275 153 166 191 207 217 225 207 212 198 195 183 165 172 184 190 197 229 247 244 247 257 236 194 208 202 202 219 239 250 254 253 257 261 253 252 261
220 188 250 240 212 207 196 65 230 323 310 203 147 75 91 103 127 157 156 158 172 183 178 161 162 164 168 171 193 211 224 221 220 207 195 207 213 211 215 222 225 236 246 245 238 241 245 252 258
215 192 165 169 182 160 138 191 316 9 29 49 69 89 99 96 102 110 128 134 137 149 161 173 181 170 177 196 210 214 230 196 184 179 204 215 217 210 206 213 204 203 215 241 235 240 247 254 258
216 198 199 129 49 126 147 95 51 25 30 46 60 72 82 96 99 107 114 118 116 117 117 122 112 95 86 89 6 16 288 225 236 173 166 171 186 184 197 223 236 244 244 246 253 256 261 265 268
214 168 162 8 133 161 145 121 123 13 47 37 46 84 94 97 96 98 99 103 106 104 98 94 93 82 49 13 17 315 293 224 283 244 191 213 246 266 274 280 279 279 280 274 272 271 271 273 272
147 166 97 109 121 157 139 113 345 237 131 98 68 99 104 104 103 99 97 96 96 92 89 85 77 67 56 44 19 119 236 62 169 223 194 225 275 285 287 289 291 292 288 288 287 287 284 281 280
217 176 143 134 177 96 116 175 289 200 142 122 108 114 113 111 109 107 103 99 100 99 99 97 96 88 67 54 33 353 345 341 317 332 330 324 320 312 309 305 301 298 295 293 293 291 289 288 286